WB2COY Weather Reports


time (UTC)temp
C
wind
direction
speed
KPH
gust
KPH
rain 1hr
cm
rain 24hr
cm
rain mn
cm
humidity
%
barometer
mb
20260510130036 13 0.0 6.4 0.00 0.81 0.00 81 1012.8
20260510123016 12 0.0 1.6 0.00 0.81 0.00 83 1012.6
20260510120016 11 0.0 0.0 0.00 0.81 0.00 83 1012.4
20260510113015 10 0.0 0.0 0.00 0.84 0.00 83 1012.2
20260510110036 10 0.0 1.6 0.00 0.84 0.00 83 1011.9
20260510103015 10 0.0 0.0 0.00 0.84 0.00 83 1011.5
20260510100055 10 0.0 1.6 0.00 0.84 0.00 83 1011.4
20260510093015 10 0.0 1.6 0.00 0.86 0.00 83 1011.3
20260510090016 10 0.0 0.0 0.00 0.89 0.00 83 1010.8
20260510083015 10 0.0 1.6 0.00 0.89 0.00 82 1011.1
20260510080015 10 0.0 1.6 0.00 0.91 0.00 82 1011.5
20260510073036 10 0.0 1.6 0.00 0.94 0.00 83 1011.9
20260510070017 10 0.0 1.6 0.00 0.99 0.00 83 1012.0
20260510063017 10 0.0 1.6 0.00 0.99 0.00 82 1011.5
20260510060018 10 0.0 0.0 0.00 0.99 0.00 82 1011.4
20260510053016 10 0.0 0.0 0.00 0.99 0.00 82 1011.5
20260510050038 10 0.0 0.0 0.00 0.99 0.00 82 1011.1
20260510043040 10 0.0 0.0 0.00 0.99 0.00 82 1011.1
20260510040017 10 0.0 0.0 0.00 0.99 0.99 82 1011.0
20260510033015 10 0.0 1.6 0.00 0.99 0.99 82 1010.9
20260510030015 10 0.0 1.6 0.00 0.99 0.99 82 1011.2
20260510023015 10 0.0 1.6 0.00 0.99 0.99 79 1011.0
20260510020017 10 0.0 0.0 0.00 0.99 0.99 79 1010.8
20260510013017 10 0.0 1.6 0.00 0.99 0.99 77 1010.9
20260510010018 11 0.0 3.2 0.00 0.99 0.99 77 1010.4
20260510003017 11 0.0 4.8 0.00 0.99 0.99 77 1010.3
20260510000037 11 0.0 3.2 0.00 0.99 0.99 75 1009.7
20260509233017 12 0.0 1.6 0.00 0.99 0.99 75 1009.7
20260509230016 12 0.0 3.2 0.00 0.99 0.99 76 1009.7
20260509223017 12 0.0 3.2 0.00 0.99 0.99 77 1009.5
20260509220038 12 0.0 4.8 0.00 0.99 0.99 77 1009.9
20260509213037 12 0.0 3.2 0.05 0.99 0.99 77 1010.1
20260509210017 12 0.0 1.6 0.15 0.99 0.99 77 1010.0
20260509203016 12 0.0 6.4 0.23 0.94 0.94 73 1010.7
20260509200017 12 0.0 4.8 0.25 0.84 0.84 72 1010.9
20260509193016 12 0.0 4.8 0.20 0.71 0.71 73 1011.4
20260509190016 13 0.0 3.2 0.15 0.58 0.58 73 1011.8
20260509183016 13 0.0 1.6 0.13 0.51 0.51 71 1011.6
20260509180017 13 0.0 1.6 0.10 0.43 0.43 71 1011.4
20260509173021 13 0.0 1.6 0.08 0.38 0.38 71 1011.2
20260509170036 12 0.0 1.6 0.08 0.33 0.33 71 1011.5
20260509163016 12 0.0 1.6 0.10 0.30 0.30 71 1011.7
20260509160016 12 0.0 3.2 0.05 0.25 0.25 71 1012.3
20260509153017 11 0.0 1.6 0.00 0.20 0.20 70 1012.6
20260509150016 11 0.0 1.6 0.00 0.20 0.20 70 1012.3
20260509143015 10 0.0 1.6 0.03 0.20 0.20 73 1012.6
20260509140015 10 0.0 1.6 0.03 0.20 0.20 77 1012.7
20260509133037 8 0.0 1.6 0.00 0.18 0.18 76 1012.8